Tiempo cada hora Dabeiba

Hoy, 24 Noviembre, Martes

Tiempo Temperatura Precipitaciones Viento Presión Humedad
00:00 +21°C° 1 mm 0 mps 684 mmHg 98%
01:00 +21°C° 1 mm 0 mps 684 mmHg 98%
02:00 +20°C° 0.2 mm 0 mps 683 mmHg 98%
03:00 +20°C° 0.2 mm 0 mps 683 mmHg 98%
04:00 +20°C° 0.2 mm 0 mps 683 mmHg 98%
05:00 +20°C° 0 mm 0 mps 683 mmHg 97%
06:00 +21°C° 0 mm 0 mps 684 mmHg 97%
07:00 +23°C° 0 mm 1 mps 685 mmHg 96%
08:00 +25°C° 0.2 mm 1 mps 685 mmHg 89%
09:00 +26°C° 0.2 mm 1 mps 686 mmHg 83%
10:00 +28°C° 0.2 mm 1 mps 686 mmHg 76%
11:00 +28°C° 1.6 mm 1 mps 685 mmHg 81%
12:00 +28°C° 1.6 mm 1 mps 684 mmHg 85%
13:00 +27°C° 1.6 mm 1 mps 684 mmHg 90%
14:00 +27°C° 1.9 mm 1 mps 683 mmHg 92%
15:00 +26°C° 1.9 mm 1 mps 683 mmHg 94%
16:00 +23°C° 1.9 mm 0 mps 682 mmHg 96%
17:00 +23°C° 1.4 mm 0 mps 682 mmHg 96%
18:00 +22°C° 1.4 mm 0 mps 683 mmHg 97%
19:00 +21°C° 1.4 mm 0 mps 683 mmHg 97%
20:00 +21°C° 0.4 mm 0 mps 684 mmHg 97%
21:00 +21°C° 0.4 mm 0 mps 684 mmHg 98%
22:00 +21°C° 0.4 mm 0 mps 684 mmHg 98%
23:00 +21°C° 0.5 mm 0 mps 684 mmHg 98%

Mañana, 25 Noviembre, Miércoles

Tiempo Temperatura Precipitaciones Viento Presión Humedad
00:00 +21°C° 0.5 mm 0 mps 684 mmHg 98%
01:00 +21°C° 0.5 mm 0 mps 684 mmHg 98%
02:00 +21°C° 1.2 mm 0 mps 684 mmHg 98%
03:00 +20°C° 1.2 mm 0 mps 683 mmHg 98%
04:00 +20°C° 1.2 mm 0 mps 683 mmHg 98%
05:00 +21°C° 0.7 mm 0 mps 684 mmHg 97%
06:00 +21°C° 0.7 mm 0 mps 684 mmHg 97%
07:00 +21°C° 0.7 mm 0 mps 684 mmHg 97%
08:00 +22°C° 0.9 mm 0 mps 685 mmHg 95%
09:00 +23°C° 0.9 mm 0 mps 685 mmHg 93%
10:00 +26°C° 0.9 mm 1 mps 686 mmHg 91%
11:00 +26°C° 2 mm 1 mps 685 mmHg 91%
12:00 +26°C° 2 mm 1 mps 685 mmHg 92%
13:00 +26°C° 2 mm 1 mps 684 mmHg 93%
14:00 +26°C° 1.6 mm 1 mps 684 mmHg 94%
15:00 +25°C° 1.6 mm 1 mps 683 mmHg 96%
16:00 +24°C° 1.6 mm 1 mps 683 mmHg 97%
17:00 +24°C° 0.7 mm 1 mps 683 mmHg 97%
18:00 +23°C° 0.7 mm 1 mps 683 mmHg 97%
19:00 +23°C° 0.7 mm 1 mps 684 mmHg 98%
20:00 +22°C° 0.1 mm 1 mps 684 mmHg 98%
21:00 +20°C° 0.1 mm 0 mps 684 mmHg 97%
22:00 +20°C° 0.1 mm 0 mps 685 mmHg 97%
23:00 +20°C° 0.1 mm 0 mps 685 mmHg 97%

Pasado mañana, 26 Noviembre, Jueves

Tiempo Temperatura Precipitaciones Viento Presión Humedad
00:00 +20°C° 0.1 mm 0 mps 684 mmHg 97%
01:00 +20°C° 0.1 mm 0 mps 684 mmHg 97%
02:00 +20°C° 0.1 mm 0 mps 684 mmHg 97%
03:00 +19°C° 0.1 mm 0 mps 683 mmHg 96%
04:00 +19°C° 0.1 mm 0 mps 683 mmHg 96%
05:00 +20°C° 0 mm 0 mps 684 mmHg 96%
06:00 +22°C° 0 mm 1 mps 684 mmHg 95%
07:00 +22°C° 0 mm 1 mps 684 mmHg 95%
08:00 +24°C° 0.5 mm 1 mps 685 mmHg 92%
09:00 +25°C° 0.5 mm 1 mps 685 mmHg 90%
10:00 +26°C° 0.5 mm 1 mps 686 mmHg 87%
11:00 +26°C° 1.5 mm 1 mps 685 mmHg 89%
12:00 +26°C° 1.5 mm 1 mps 684 mmHg 90%
13:00 +26°C° 1.5 mm 1 mps 684 mmHg 92%
14:00 +25°C° 2.1 mm 1 mps 683 mmHg 94%
15:00 +25°C° 2.1 mm 1 mps 683 mmHg 95%
16:00 +24°C° 2.1 mm 1 mps 682 mmHg 97%
17:00 +23°C° 1.5 mm 1 mps 683 mmHg 98%
18:00 +23°C° 1.5 mm 1 mps 683 mmHg 98%
19:00 +20°C° 1.5 mm 0 mps 683 mmHg 99%
20:00 +20°C° 1.2 mm 0 mps 684 mmHg 99%
21:00 +20°C° 1.2 mm 0 mps 684 mmHg 98%
22:00 +20°C° 1.2 mm 0 mps 685 mmHg 98%
23:00 +20°C° 0.3 mm 0 mps 684 mmHg 98%

27 Noviembre, Viernes

Tiempo Temperatura Precipitaciones Viento Presión Humedad
00:00 +20°C° 0.3 mm 0 mps 684 mmHg 98%
01:00 +19°C° 0.3 mm 0 mps 684 mmHg 97%
02:00 +19°C° 0.1 mm 0 mps 684 mmHg 97%
03:00 +19°C° 0.1 mm 0 mps 683 mmHg 97%
04:00 +19°C° 0.1 mm 0 mps 683 mmHg 96%
05:00 +19°C° 0 mm 0 mps 684 mmHg 96%
06:00 +20°C° 0 mm 0 mps 684 mmHg 95%
07:00 +20°C° 0 mm 0 mps 684 mmHg 95%
08:00 +21°C° 0.4 mm 0 mps 685 mmHg 92%
09:00 +25°C° 0.4 mm 1 mps 685 mmHg 88%
10:00 +26°C° 0.4 mm 1 mps 686 mmHg 85%
11:00 +26°C° 1.6 mm 1 mps 685 mmHg 88%
12:00 +25°C° 1.6 mm 1 mps 684 mmHg 91%
13:00 +25°C° 1.6 mm 1 mps 684 mmHg 95%
14:00 +25°C° 2.3 mm 1 mps 683 mmHg 95%
15:00 +24°C° 2.3 mm 1 mps 683 mmHg 96%
16:00 +22°C° 2.3 mm 0 mps 682 mmHg 96%
17:00 +21°C° 1.2 mm 0 mps 683 mmHg 96%
18:00 +21°C° 1.2 mm 0 mps 683 mmHg 97%
19:00 +20°C° 1.2 mm 0 mps 683 mmHg 97%
20:00 +20°C° 0.4 mm 0 mps 684 mmHg 97%
21:00 +20°C° 0.4 mm 0 mps 684 mmHg 96%
22:00 +20°C° 0.4 mm 0 mps 684 mmHg 96%
23:00 +19°C° 0.3 mm 0 mps 684 mmHg 96%

28 Noviembre, Sábado

Tiempo Temperatura Precipitaciones Viento Presión Humedad
00:00 +19°C° 0.3 mm 0 mps 684 mmHg 97%
01:00 +19°C° 0.3 mm 0 mps 683 mmHg 97%
02:00 +19°C° 0.3 mm 0 mps 683 mmHg 97%
03:00 +19°C° 0.3 mm 0 mps 683 mmHg 96%
04:00 +21°C° 0.3 mm 1 mps 683 mmHg 96%
05:00 +21°C° 0.1 mm 1 mps 683 mmHg 95%
06:00 +21°C° 0.1 mm 1 mps 684 mmHg 94%
07:00 +22°C° 0.1 mm 1 mps 684 mmHg 93%
08:00 +23°C° 0.1 mm 1 mps 685 mmHg 88%
09:00 +25°C° 0.1 mm 1 mps 686 mmHg 83%
10:00 +26°C° 0.1 mm 1 mps 686 mmHg 78%
11:00 +26°C° 0.9 mm 1 mps 686 mmHg 80%
12:00 +26°C° 0.9 mm 1 mps 685 mmHg 82%
13:00 +27°C° 0.9 mm 1 mps 684 mmHg 85%
14:00 +26°C° 1.4 mm 1 mps 684 mmHg 88%
15:00 +25°C° 1.4 mm 1 mps 683 mmHg 92%
16:00 +25°C° 1.4 mm 1 mps 682 mmHg 95%
17:00 +24°C° 0.9 mm 1 mps 683 mmHg 96%
18:00 +21°C° 0.9 mm 0 mps 683 mmHg 98%
19:00 +20°C° 0.9 mm 0 mps 684 mmHg 99%
20:00 +20°C° 0.4 mm 0 mps 684 mmHg 99%
21:00 +20°C° 0.4 mm 0 mps 684 mmHg 99%
22:00 +20°C° 0.4 mm 0 mps 685 mmHg 99%
23:00 +20°C° 0.4 mm 0 mps 685 mmHg 99%

29 Noviembre, Domingo

Tiempo Temperatura Precipitaciones Viento Presión Humedad
00:00 +20°C° 0.4 mm 0 mps 684 mmHg 98%
01:00 +20°C° 0.4 mm 0 mps 684 mmHg 98%
02:00 +20°C° 0.3 mm 0 mps 684 mmHg 98%
03:00 +20°C° 0.3 mm 0 mps 684 mmHg 98%
04:00 +20°C° 0.3 mm 0 mps 684 mmHg 98%
05:00 +20°C° 0.2 mm 0 mps 684 mmHg 98%
06:00 +20°C° 0.2 mm 0 mps 685 mmHg 97%
07:00 +20°C° 0.2 mm 0 mps 685 mmHg 97%
08:00 +21°C° 0.4 mm 0 mps 685 mmHg 94%
09:00 +23°C° 0.4 mm 0 mps 686 mmHg 91%
10:00 +26°C° 0.4 mm 1 mps 686 mmHg 88%
11:00 +26°C° 1.6 mm 1 mps 685 mmHg 89%
12:00 +26°C° 1.6 mm 1 mps 685 mmHg 90%
13:00 +26°C° 1.6 mm 1 mps 684 mmHg 91%
14:00 +25°C° 1.8 mm 1 mps 683 mmHg 93%
15:00 +25°C° 1.8 mm 1 mps 683 mmHg 95%
16:00 +24°C° 1.8 mm 1 mps 683 mmHg 96%
17:00 +22°C° 0.9 mm 0 mps 683 mmHg 97%
18:00 +21°C° 0.9 mm 0 mps 684 mmHg 98%
19:00 +20°C° 0.9 mm 0 mps 684 mmHg 99%
20:00 +20°C° 0.2 mm 0 mps 684 mmHg 98%
21:00 +20°C° 0.2 mm 0 mps 685 mmHg 98%
22:00 +20°C° 0.2 mm 0 mps 685 mmHg 98%
23:00 +20°C° 1 mm 0 mps 685 mmHg 98%
Mostrar más

Necesitamos Su Consentimiento

Meteoprog y nuestros Proveedores de Servicios pueden almacenar y acceder a sus datos personales como cookies, identificadores de dispositivo u otras tecnologías similares de su dispositivo y procesar dichos datos para personalizar contenido y anuncios, además de ofrecer funciones de redes sociales y analizar el tráfico.

  • Almacenar y/o acceder a información en su dispositivo

    Se puede almacenar o acceder a cookies, identificadores de dispositivo u otra información de su dispositivo para los fines anteriormente indicados.

  • Anuncios y contenido personalizados, medición de anuncios y contenido, percepciones del público, y desarrollo de productos

    Los anuncios y el contenido pueden personalizarse en base a su perfil. Se pueden añadir más datos para personalizar mejor los anuncios y contenidos. Se puede medir el rendimiento de los anuncios y contenidos. Se puede obtener la percepción sobre el público que ha visto los anuncios y contenidos. Dichos datos pueden usarse para desarrollar o mejorar la experiencia del usuario, sistemas y software.

Al hacer clic en ‘Estoy De Acuerdo’ usted permitirá el uso de las cookies, identificadores de dispositivo, balizas web u otras tecnologías similares indicadas. Su configuración puede cambiarse desde el navegador de su dispositivo.

Para ciertos fines, los intereses legítimos pueden ser considerados por encima del consentimiento. Puede leer más sobre ello en nuestra Política de Privacidad y Cookies.